TimeCST,TemperatureF,Dew PointF,Humidity,Sea Level PressureIn,VisibilityMPH,Wind Direction,Wind SpeedMPH,Gust SpeedMPH,PrecipitationIn,Events,Conditions,WindDirDegrees,DateUTC
12:24 AM,50.0,46.4,87,29.89,10.0,Variable,6.9,-,0.00,,Overcast,0,2012-12-15 06:24:00
12:53 AM,51.1,48.0,89,29.88,10.0,SSE,9.2,-,0.00,Rain,Light Rain,160,2012-12-15 06:53:00
1:53 AM,52.0,48.9,89,29.85,10.0,Variable,5.8,-,0.01,,Overcast,0,2012-12-15 07:53:00
2:53 AM,53.1,51.1,93,29.88,3.0,Variable,4.6,-,0.02,Rain,Rain,0,2012-12-15 08:53:00
3:01 AM,53.6,51.8,94,29.88,2.5,Variable,3.5,-,0.03,Rain,Rain,0,2012-12-15 09:01:00
3:10 AM,53.6,51.8,94,29.87,4.0,Calm,Calm,-,0.04,Rain,Light Rain,0,2012-12-15 09:10:00
3:20 AM,51.8,51.8,100,29.85,6.0,Calm,Calm,-,0.04,Rain,Light Rain,0,2012-12-15 09:20:00
3:30 AM,51.8,51.8,100,29.85,6.0,Calm,Calm,-,0.04,Rain,Light Rain,0,2012-12-15 09:30:00
3:39 AM,51.8,51.8,100,29.84,6.0,Calm,Calm,-,0.04,,Overcast,0,2012-12-15 09:39:00
3:53 AM,53.1,51.1,93,29.84,10.0,SE,6.9,-,0.04,,Overcast,130,2012-12-15 09:53:00
4:53 AM,53.1,52.0,96,29.82,8.0,Calm,Calm,-,N/A,,Overcast,0,2012-12-15 10:53:00
5:53 AM,55.9,55.0,97,29.83,10.0,Calm,Calm,-,N/A,,Overcast,0,2012-12-15 11:53:00
6:53 AM,57.0,55.0,93,29.85,9.0,Variable,3.5,-,N/A,,Overcast,0,2012-12-15 12:53:00
7:20 AM,57.2,55.4,94,29.84,10.0,Variable,3.5,-,N/A,,Overcast,0,2012-12-15 13:20:00
7:30 AM,57.2,55.4,94,29.84,10.0,Variable,4.6,-,N/A,,Mostly Cloudy,0,2012-12-15 13:30:00
7:40 AM,57.2,55.4,94,29.84,10.0,Variable,3.5,-,N/A,,Mostly Cloudy,0,2012-12-15 13:40:00
7:53 AM,57.9,55.0,90,29.85,10.0,Calm,Calm,-,N/A,,Scattered Clouds,0,2012-12-15 13:53:00
8:53 AM,60.1,54.0,80,29.84,10.0,Calm,Calm,-,N/A,,Partly Cloudy,0,2012-12-15 14:53:00
9:53 AM,61.0,53.1,75,29.85,10.0,WSW,5.8,-,N/A,,Clear,240,2012-12-15 15:53:00
10:53 AM,64.0,50.0,60,29.83,10.0,Variable,5.8,-,N/A,,Clear,0,2012-12-15 16:53:00
11:53 AM,66.0,44.1,45,29.81,10.0,WSW,8.1,16.1,N/A,,Clear,250,2012-12-15 17:53:00
12:53 PM,69.1,41.0,36,29.78,10.0,Variable,4.6,-,N/A,,Clear,0,2012-12-15 18:53:00
1:53 PM,70.0,37.0,30,29.75,10.0,Variable,5.8,-,N/A,,Clear,0,2012-12-15 19:53:00
2:53 PM,70.0,36.0,29,29.75,10.0,Variable,6.9,-,N/A,,Clear,0,2012-12-15 20:53:00
3:53 PM,70.0,35.1,28,29.75,10.0,Variable,6.9,-,N/A,,Clear,0,2012-12-15 21:53:00
4:53 PM,66.9,36.0,32,29.76,10.0,Variable,4.6,-,N/A,,Clear,0,2012-12-15 22:53:00
5:53 PM,66.0,35.1,32,29.75,10.0,Variable,6.9,-,N/A,,Clear,0,2012-12-15 23:53:00
6:53 PM,66.0,36.0,33,29.76,10.0,Variable,3.5,-,N/A,,Clear,0,2012-12-16 00:53:00
7:53 PM,64.0,35.1,34,29.78,10.0,Variable,4.6,-,N/A,,Clear,0,2012-12-16 01:53:00
8:53 PM,63.0,34.0,34,29.78,10.0,Variable,5.8,-,N/A,,Clear,0,2012-12-16 02:53:00
9:53 PM,62.1,34.0,35,29.78,10.0,Variable,3.5,-,N/A,,Clear,0,2012-12-16 03:53:00
10:53 PM,62.1,34.0,35,29.79,10.0,Variable,3.5,-,N/A,,Clear,0,2012-12-16 04:53:00
11:53 PM,60.1,35.1,39,29.79,10.0,Calm,Calm,-,N/A,,Clear,0,2012-12-16 05:53:00